Location: Dana
(41.8364°N, 106.7042°W)
Time: 12:09:06
(UTC+00:00)

Tiros 1 despin weight - Pass Details

Date: 18 May 2026
Orbit: 554 x 591 km, 48.2° (Epoch: 10 June)

Event Time Altitude Azimuth Distance (km) Brightness Sun altitude
Rises 10:24:45 0° 221° (SW) 2,765 - -12.9°
Reaches altitude 10° 10:27:06 10° 214° (SW) 1,864 - -12.6°
Exits shadow 10:28:14 17° 208° (SSW) 1,454 ? -12.5°
Maximum altitude 10:31:08 42° 143° (SE) 809 ? -12.0°
Drops below altitude 10° 10:35:08 10° 72° (ENE) 1,851 ? -11.5°
Sets 10:37:27 0° 66° (ENE) 2,744 ? -11.1°
